Showing default

UNISAT 7, 47945

Orbit data source: Space-Track

UNISAT 7, 47945 is a payload satellite owned by GAUSS SrI (IT) in SSO that was launched on Mon, 22 Mar 2021 UTC via a SOYUZ-2-1A launch vehicle from the Tyuratam Missile And Space Complex (TTMTR). Payload-class satellites include a variety of spacecraft equipped with specific instruments for various scientific and technological missions. These include communications satellites like Starlink; space stations such as the ISS; scientific satellites like the Hubble; Earth observation satellites from companies like Planet Labs, Umbra, and HawkEye 360; GPS; miniature CubeSats for education and research; and military/defense satellites.

Loading next visibility...
Identifier
47945, 2021-022P
Orbit
SSO
Country
Flag of ITIT
Related business
Manufacturer
GAUSS SrI
Mission
Operational Commercial Technology
Bus & Motor
UNISAT, Unknown motor
Mass
32 kg wet, ~19 kg dry
Launch date (UTC)
2021-03-22 (5 years ago)
Launch vehicle
SOYUZ-2-1A
Launch site
Tyuratam Missile And Space Complex (TTMTR)
Object type
Payload
Rocket body
Debris
Shape & HBR
Oct Cyl, 0.5 m
Radar Cross Section
0.280 m², Medium (>0.1 m² and < 1m²)

Expand to show TLE details & history
Last TLE update: 2 days ago

TLE from 2 days ago
0 UNISAT 7
1 47945U 21022P   26171.27734140  .00012981  00000-0  32095-3 0  9994
2 47945  97.3882  76.2336 0010919  69.5980 290.6438 15.40539558290336
Epoch: 2026-06-20T06:39Z
TLE epoch observation values (Epoch: 2026-06-20T06:39:22.296Z)
Latitude
-0.00005°
Longitude
67.89643°
Altitude
445.015 km
Speed
7.647 km/s
True Right ascension
05h 04m 56s
True Declination
0° 00' 00"
Sunlit
Object was in daylight at epoch
Visualization orbit readout
Latitude
Unknown
Longitude
Unknown
Altitude
Unknown
Speed
Unknown
Apparent Right ascension
Unknown
Apparent Declination
Unknown
Sunlit
N/A
Visualization observer readout
Local Sidereal Time
21:53:56
Azimuth
Unknown
Elevation
Unknown
Doppler factor
Unknown
Orbital elements
Apogee altitude
448.9 km
Perigee altitude
434.007 km
Semi-major axis
6,819.591 km
Eccentricity
0.00109
Inclination
97.3882°
RAAN
76.2336°
Arg. of periapsis
69.598°
True anomaly
290.52666°
Mean anomaly
290.6438°
Eccentric anomaly
290.58523°
Mean motion
3.85395 °/min
Orbital period
93.41 mins
BSTAR
0.00032095
Loading maneuver chart data...
Computing Atmospheric mass density...
Loading historical data...
Loading historical data...
Loading historical data...
Loading historical data...
Loading historical data...
Loading historical data...
Loading historical data...

Documentation

Showing up to 5 results
|